Regional Weather Roundup
Issued by NWS

Home | Current Version | Previous Version | Graphics & Text | Print | Product List | Glossary On
Versions: 1 2 3 4 5 6 7 8 9 10 11 12 13 14 15 16 17 18 19 20 21 22 23 24 25 26 27 28 29 30 31 32 33 34 35 36 37 38 39 40 41 42 43 44 45 46 47 48 49
000
ASUS43 KDMX 041007
RWRIA

WEATHER ROUNDUP FOR IOWA
NATIONAL WEATHER SERVICE DES MOINES IA
500 AM CDT SAT JUL 04 2015

NOTE: "FAIR" INDICATES FEW OR NO CLOUDS BELOW 12,000 FEET WITH NO
SIGNIFICANT WEATHER AND/OR OBSTRUCTIONS TO VISIBILITY.

* - THESE STATIONS ARE NOT NWS STATIONS...THUS NOT UNDER NWS
QUALITY CONTROL.  THEY ALSO DO NOT REPORT WEATHER SUCH
AS PRECIPITATION OR FOG.

IAZ001>003-012>014-020>022-031>034-043>046-041100-
   NORTHWEST IOWA

CITY           SKY/WX    TMP DP  RH WIND       PRES   REMARKS
CARROLL *      CLOUDY    55  54  94 CALM      29.99S
CHEROKEE *     CLEAR     54  54 100 CALM      29.99S FOG
DENISON *      CLOUDY    54  54 100 CALM      29.98S
LE MARS *        N/A     55  55 100 CALM      29.99S FOG
ORANGE CITY *  CLEAR     57  54  88 CALM      29.99S
SHELDON *      MOCLDY    59  59 100 SW5       29.98R
SIOUX CITY     CLEAR     59  55  87 E3        29.99R
SPENCER        CLEAR     58  52  80 CALM      29.98S
STORM LAKE *   CLEAR     59  54  82 SW7       30.00S
$$

IAZ055>058-069>071-079>083-090>094-041100-
   SOUTHWEST IOWA

CITY           SKY/WX    TMP DP  RH WIND       PRES   REMARKS
ATLANTIC *     CLOUDY    52  52 100 N3        29.99F
AUDUBON *      CLEAR     50  46  87 CALM      30.00F
CLARINDA *     CLEAR     54  54 100 CALM      30.01S FOG
COUNCIL BLFS * CLOUDY    63  52  67 CALM      29.99S
CRESTON *      CLEAR     59  55  88 SW3       30.00S
HARLAN  *      FOG       50  50 100 CALM      30.03S VSB 1
LAMONI         CLEAR     64  54  69 S3        29.99S
RED OAK *      CLOUDY    54  54 100 CALM      29.99S
SHENANDOAH *   CLEAR     55  55 100 CALM      30.00S
$$

IAZ047>049-059>061-072>074-084-041100-
   CENTRAL IOWA

CITY           SKY/WX    TMP DP  RH WIND       PRES   REMARKS
AMES           CLEAR     55  53  93 CALM      29.98S
ANKENY *       CLEAR     55  55 100 CALM      29.99R FOG
CHARITON *     CLOUDY    57  54  88 CALM      29.99S
DES MOINES     PTCLDY    62  55  77 CALM      29.98S
GRINNELL*      CLEAR     57  55  94 CALM      29.99S
KNOXVILLE *    PTCLDY    57  54  88 CALM      29.97S
MARSHALLTOWN   CLEAR     57  55  93 CALM      29.97S
PELLA *        CLEAR     57  57 100 CALM      29.99S
PERRY *          N/A     55  54  94 CALM      29.99S
$$

IAZ004>006-015-016-023>025-035-036-041100-
   NORTH CENTRAL IOWA

CITY           SKY/WX    TMP DP  RH WIND       PRES   REMARKS
ALGONA *       MOCLDY    59  55  88 SW6       29.99R
CLARION *      CLEAR     57  54  88 CALM      29.98S
ESTHERVILLE    CLEAR     58  56  93 W6        29.98R
FORT DODGE *   CLEAR     55  52  88 CALM      29.97F
MASON CITY     CLEAR     59  55  87 W5        29.99R
FOREST CITY *  CLEAR     54  54 100 CALM      29.98S
IOWA FALLS *     N/A     55  52  88 CALM      29.99S
$$

IAZ007>011-017>019-026>030-037>042-050>054-066-041100-
   NORTHEAST IOWA

CITY           SKY/WX    TMP DP  RH WIND       PRES   REMARKS
CEDAR RAPIDS   CLEAR     58  57  97 CALM      29.97S
CHARLES CITY * CLEAR     57  57 100 S5        29.98S
CLINTON *      CLEAR     55  52  88 NW5       30.00S
DECORAH *        N/A    N/A N/A N/A MISG        N/A
DUBUQUE        CLEAR     56  53  90 CALM      29.98S
MONTICELLO *   CLEAR     54  54 100 CALM      29.98S
OELWEIN *        N/A    N/A N/A N/A S3        29.99R
WATERLOO       CLEAR     56  54  93 CALM      29.97R
$$

IAZ064-065-067-068-078-041100-
   EAST CENTRAL IOWA

CITY           SKY/WX    TMP DP  RH WIND       PRES   REMARKS
DAVENPORT      CLEAR     56  54  93 N3        29.97F FOG
IOWA CITY      CLEAR     57  55  93 CALM      29.98S
MT. PLEASANT * CLEAR     59  55  88 CALM      29.98S FOG
MUSCATINE *    CLEAR     57  55  94 CALM      29.98R
QUAD CITIES    CLEAR     57  54  89 CALM      29.97S FOG
$$

IAZ062-063-075>077-085>089-095>099-041100-
   SOUTHEAST IOWA

CITY           SKY/WX    TMP DP  RH WIND       PRES   REMARKS
BURLINGTON     PTCLDY    58  58 100 N3        29.97R FOG
FAIRFIELD *    CLEAR     55  54  94 CALM      29.98S
FORT MADISON * CLEAR     59  59 100 CALM      29.98S FOG
KEOKUK *       CLEAR     59  59 100 CALM      29.96S FOG
OSKALOOSA *      N/A     55  54  94 CALM      29.99S
CENTERVILLE *  CLEAR     57  57 100 CALM      30.00F
OTTUMWA        CLEAR     56  56 100 CALM      29.96S
WASHINGTON *   CLEAR     55  55 100 CALM      29.99S
$$

ABBREVIATIONS USED IN REMARKS
   TC - TEMPERATURES IN CELSIUS
  WCI - WIND CHILL INDEX
   HX - HEAT INDEX
  VSB - VISIBILITY
$$




USA.gov is the U.S. government's official web portal to all federal, state and local government web resources and services.